Location: Morisset
(33.1080°S, 151.4871°E)
Time: 08:45:34
(UTC+00:00)

Cosmos 1674 - Pass Details

Date: 29 October 2020
Orbit: 493 x 518 km, 82.5° (Epoch: 27 November)

Event Time Altitude Azimuth Distance (km) Brightness Sun altitude
Rises 17:07:35 0° 193° (SSW) 2,668 6.6 -21.5°
Reaches altitude 10° 17:09:46 10° 198° (SSW) 1,775 5.6 -21.1°
Enters shadow 17:12:50 43° 238° (WSW) 751 3.3 -20.5°
